sat.trackr.live / text

‹ back to catalog

STARLINK-32892

NORAD 62893 · 2025-024Q

PAYLOAD ACTIVE UNKNOWN

§ Identity

Operator
Country
US
Launch date
2025-02-04
Launch site
AFETR
Launch vehicle
Mass (kg)
RCS (m²)

Purposes: comms

External: N2YO · Heavens-Above · Gunter

§ Orbital elements

Epoch: 2026-05-24T17:35:10.299840Z

Period
94.27 min
Inclination
42.9980°
Eccentricity
0.0001366
Mean motion
15.27590145 rev/d
Perigee alt
482.1 km
Apogee alt
484.0 km
Semi-major
6,861.2 km
B*
3.1240e-4
RAAN
256.0914°
Arg perigee
276.7146°
Mean anomaly
83.3550°
Rev number
7,389

§ Raw data

STARLINK-328921 62893U 25024Q   26144.73275810  .00008347  00000+0  31240-3 0  99952 62893  42.9980 256.0914 0001366 276.7146  83.3550 15.27590145 73898

JSON: /api/v1/satellites/62893 · /tle

For live sub-satellite position, see the globe view (requires WebGL).

§ Visibility from observer

Set your observer location to see the next 7 days of passes ≥ 10°. The values pass through the URL so the page stays shareable.

No JS? Fill the form by hand. The geolocation button needs JavaScript.